TimeCDT,TemperatureF,Dew PointF,Humidity,Sea Level PressureIn,VisibilityMPH,Wind Direction,Wind SpeedMPH,Gust SpeedMPH,PrecipitationIn,Events,Conditions,WindDirDegrees,DateUTC
12:14 AM,42.8,39.2,87,29.76,10.0,NE,12.7,-,N/A,,Mostly Cloudy,50,2012-10-16 05:14:00
12:33 AM,42.8,39.2,87,29.75,10.0,NE,11.5,-,N/A,,Scattered Clouds,50,2012-10-16 05:33:00
12:53 AM,42.8,39.2,87,29.74,10.0,NE,15.0,-,N/A,,Scattered Clouds,40,2012-10-16 05:53:00
1:14 AM,42.8,39.2,87,29.74,10.0,NE,12.7,-,N/A,,Mostly Cloudy,50,2012-10-16 06:14:00
1:33 AM,42.8,39.2,87,29.73,10.0,NE,15.0,-,N/A,,Mostly Cloudy,40,2012-10-16 06:33:00
1:53 AM,42.8,39.2,87,29.73,10.0,NE,12.7,-,N/A,,Overcast,50,2012-10-16 06:53:00
2:14 AM,44.6,41.0,87,29.72,10.0,NE,11.5,-,N/A,,Overcast,40,2012-10-16 07:14:00
2:33 AM,44.6,41.0,87,29.71,10.0,NE,12.7,-,N/A,,Overcast,40,2012-10-16 07:33:00
2:54 AM,44.6,41.0,87,29.70,10.0,ENE,13.8,-,N/A,,Overcast,60,2012-10-16 07:54:00
3:14 AM,44.6,41.0,87,29.69,10.0,NE,11.5,-,N/A,Rain,Light Rain,50,2012-10-16 08:14:00
3:33 AM,42.8,41.0,93,29.68,10.0,NE,9.2,-,N/A,,Drizzle,50,2012-10-16 08:33:00
3:54 AM,42.8,41.0,93,29.67,10.0,NE,12.7,-,N/A,,Drizzle,40,2012-10-16 08:54:00
4:14 AM,42.8,41.0,93,29.66,10.0,NE,10.4,-,N/A,,Drizzle,40,2012-10-16 09:14:00
4:33 AM,42.8,41.0,93,29.66,10.0,NNE,12.7,-,N/A,,Light Drizzle,30,2012-10-16 09:33:00
4:54 AM,42.8,41.0,93,29.65,10.0,NNE,11.5,-,N/A,,Drizzle,30,2012-10-16 09:54:00
5:33 AM,42.8,41.0,93,29.65,10.0,NE,10.4,-,N/A,,Drizzle,40,2012-10-16 10:33:00
5:54 AM,42.8,41.0,93,29.64,10.0,NE,8.1,-,N/A,Rain,Light Rain,50,2012-10-16 10:54:00
6:14 AM,42.8,41.0,93,29.64,10.0,ENE,4.6,-,N/A,Rain,Rain,60,2012-10-16 11:14:00
6:33 AM,42.8,41.0,93,29.63,10.0,NE,3.5,-,N/A,Rain,Light Rain,50,2012-10-16 11:33:00
7:14 AM,42.8,41.0,93,29.62,10.0,Calm,Calm,-,N/A,Rain,Light Rain,0,2012-10-16 12:14:00
7:33 AM,42.8,41.0,93,29.61,10.0,North,3.5,-,N/A,Rain,Rain,10,2012-10-16 12:33:00
7:54 AM,42.8,41.0,93,29.61,7.0,Calm,Calm,-,N/A,,Light Drizzle,0,2012-10-16 12:54:00
8:14 AM,42.8,41.0,93,29.59,7.0,Calm,Calm,-,N/A,,Drizzle,0,2012-10-16 13:14:00
8:33 AM,42.8,41.0,93,29.59,7.0,Calm,Calm,-,N/A,,Overcast,0,2012-10-16 13:33:00
8:54 AM,42.8,41.0,93,29.59,5.0,Calm,Calm,-,N/A,Rain,Light Rain,0,2012-10-16 13:54:00
9:14 AM,42.8,41.0,93,29.59,5.0,Calm,Calm,-,N/A,,Drizzle,0,2012-10-16 14:14:00
9:33 AM,42.8,41.0,93,29.57,5.0,Calm,Calm,-,N/A,,Light Drizzle,0,2012-10-16 14:33:00
9:54 AM,42.8,41.0,93,29.57,7.0,NNE,8.1,-,N/A,,Drizzle,30,2012-10-16 14:54:00
10:14 AM,42.8,41.0,93,29.56,5.0,Calm,Calm,-,N/A,Rain,Light Rain,0,2012-10-16 15:14:00
10:33 AM,44.6,42.8,93,29.57,7.0,Calm,Calm,-,N/A,Rain,Light Rain,0,2012-10-16 15:33:00
10:54 AM,44.6,42.8,93,29.56,7.0,NNE,6.9,-,N/A,,Mostly Cloudy,20,2012-10-16 15:54:00
11:14 AM,44.6,42.8,93,29.55,7.0,NNE,9.2,-,N/A,Rain,Light Rain,20,2012-10-16 16:14:00
11:33 AM,44.6,42.8,93,29.56,10.0,NNE,10.4,-,N/A,,Scattered Clouds,20,2012-10-16 16:33:00
11:54 AM,44.6,44.6,100,29.56,10.0,NE,6.9,-,N/A,,Scattered Clouds,50,2012-10-16 16:54:00
12:14 PM,46.4,44.6,93,29.55,10.0,ESE,6.9,-,N/A,,Clear,110,2012-10-16 17:14:00
12:33 PM,46.4,44.6,93,29.53,10.0,ESE,6.9,-,N/A,,Scattered Clouds,110,2012-10-16 17:33:00
12:54 PM,46.4,46.4,100,29.52,10.0,East,4.6,-,N/A,,Clear,100,2012-10-16 17:54:00
1:14 PM,48.2,46.4,93,29.51,10.0,East,4.6,-,N/A,,Clear,80,2012-10-16 18:14:00
1:33 PM,46.4,44.6,93,29.50,10.0,ENE,4.6,-,N/A,,Clear,60,2012-10-16 18:33:00
1:54 PM,46.4,44.6,93,29.49,10.0,ENE,4.6,-,N/A,,Clear,70,2012-10-16 18:54:00
2:14 PM,48.2,46.4,93,29.49,10.0,East,3.5,-,N/A,,Clear,90,2012-10-16 19:14:00
2:33 PM,48.2,46.4,93,29.48,10.0,East,6.9,-,N/A,,Clear,100,2012-10-16 19:33:00
2:54 PM,50.0,48.2,94,29.46,10.0,East,3.5,-,N/A,,Clear,100,2012-10-16 19:54:00
3:13 PM,48.2,44.6,87,29.46,10.0,North,4.6,-,N/A,,Clear,360,2012-10-16 20:13:00
3:34 PM,46.4,44.6,93,29.46,10.0,North,4.6,-,N/A,,Clear,10,2012-10-16 20:34:00
3:54 PM,48.2,44.6,87,29.45,10.0,Calm,Calm,-,N/A,,Clear,0,2012-10-16 20:54:00
4:13 PM,48.2,44.6,87,29.44,10.0,NE,3.5,-,N/A,,Clear,50,2012-10-16 21:13:00
4:34 PM,46.4,44.6,93,29.44,10.0,Calm,Calm,-,N/A,,Clear,0,2012-10-16 21:34:00
4:53 PM,46.4,44.6,93,29.44,10.0,Calm,Calm,-,N/A,,Clear,0,2012-10-16 21:53:00
5:14 PM,46.4,44.6,93,29.44,10.0,Calm,Calm,-,N/A,,Clear,0,2012-10-16 22:14:00
5:34 PM,46.4,44.6,93,29.44,10.0,NE,3.5,-,N/A,,Clear,40,2012-10-16 22:34:00
5:53 PM,46.4,42.8,87,29.43,10.0,NE,4.6,-,N/A,,Clear,50,2012-10-16 22:53:00
6:14 PM,44.6,42.8,93,29.44,10.0,NE,6.9,-,N/A,,Clear,40,2012-10-16 23:14:00
6:33 PM,46.4,44.6,93,29.44,10.0,NNE,9.2,-,N/A,,Clear,30,2012-10-16 23:33:00
6:53 PM,46.4,44.6,93,29.45,10.0,NNE,6.9,-,N/A,,Clear,30,2012-10-16 23:53:00
7:14 PM,44.6,42.8,93,29.45,10.0,NNE,10.4,-,N/A,,Clear,20,2012-10-17 00:14:00
7:33 PM,44.6,42.8,93,29.45,10.0,NNE,10.4,-,N/A,,Clear,20,2012-10-17 00:33:00
7:54 PM,44.6,42.8,93,29.45,7.0,NNE,9.2,-,N/A,,Clear,30,2012-10-17 00:54:00
8:14 PM,44.6,42.8,93,29.44,10.0,NNE,11.5,-,N/A,,Clear,20,2012-10-17 01:14:00
8:33 PM,44.6,42.8,93,29.44,10.0,NE,11.5,-,N/A,,Clear,40,2012-10-17 01:33:00
8:54 PM,44.6,42.8,93,29.44,10.0,NNE,9.2,-,N/A,,Clear,30,2012-10-17 01:54:00
9:14 PM,44.6,42.8,93,29.44,10.0,NE,5.8,-,N/A,,Clear,40,2012-10-17 02:14:00
9:33 PM,44.6,42.8,93,29.44,10.0,East,4.6,-,N/A,,Clear,80,2012-10-17 02:33:00
9:54 PM,44.6,42.8,93,29.45,7.0,Calm,Calm,-,N/A,,Clear,0,2012-10-17 02:54:00
10:13 PM,44.6,42.8,93,29.44,7.0,ESE,4.6,-,N/A,,Clear,110,2012-10-17 03:13:00
10:33 PM,44.6,42.8,93,29.44,7.0,ESE,4.6,-,N/A,,Clear,120,2012-10-17 03:33:00
10:53 PM,44.6,42.8,93,29.43,7.0,East,5.8,-,N/A,,Clear,100,2012-10-17 03:53:00
11:13 PM,44.6,42.8,93,29.44,7.0,ENE,3.5,-,N/A,,Clear,70,2012-10-17 04:13:00
11:34 PM,44.6,42.8,93,29.44,7.0,NE,3.5,-,N/A,,Mostly Cloudy,50,2012-10-17 04:34:00
11:53 PM,44.6,42.8,93,29.44,7.0,NE,4.6,-,N/A,,Overcast,50,2012-10-17 04:53:00